Location: Crescent
(42.8242°N, 73.7329°W)
Time: 01:23:39
(UTC+00:00)

Transit 4A - Pass Details

Date: 18 February 2026
Orbit: 864 x 977 km, 66.8° (Epoch: 10 March)

Event Time Altitude Azimuth Distance (km) Brightness Sun altitude
Rises 14:32:49 0° 335° (NNW) 3,579 10.4 25.0°
Reaches altitude 10° 14:38:02 10° 12° (NNE) 2,667 10.0 25.7°
Maximum altitude 14:39:24 11° 25° (NNE) 2,623 10.1 25.8°
Drops below altitude 10° 14:40:47 10° 38° (NE) 2,682 10.3 26.0°
Sets 14:46:05 0° 75° (ENE) 3,651 11.3 26.6°
